Location: Audignicourt
(49.4788°N, 3.1340°E)
Time: 20:02:33
(UTC+00:00)

Cosmos 1503 Rocket - Pass Details

Date: 15 May 2026
Orbit: 749 x 785 km, 74.0° (Epoch: 7 June)

Event Time Altitude Azimuth Distance (km) Brightness Sun altitude
Rises 21:42:48 0° 334° (NNW) 3,227 9.1 -16.4°
Reaches altitude 10° 21:45:11 10° 331° (NNW) 2,292 7.8 -16.6°
Maximum altitude 21:50:19 64° 251° (WSW) 831 4.2 -17.0°
Enters shadow 21:53:03 27° 178° (S) 1,410 4.9 -17.2°
